When you browse on this site, cookies collect data to enhance your experience and personalize the content and advertising you see.
Visit our Privacy Policy to learn more. By continuing to use the site, you agree to this use of cookies and data.
  • In Hungary
  • List of Countries
  • For 7 days
  • Water Temperature
  • Weather Map
  • News
  • Weather Widgets
  • user-avatar
    Login

    Hourly Weather Bosanski Petrovac

    Today, 13 November, Wednesday

    Time Temperature Precipitation Wind Pressure Humidity
    00:00 +5°C° 0.1 mm 2 mps 657 mmHg 93%
    01:00 +5°C° 0.1 mm 2 mps 657 mmHg 93%
    02:00 +5°C° 0.1 mm 2 mps 657 mmHg 93%
    03:00 +5°C° 0.1 mm 2 mps 656 mmHg 93%
    04:00 +5°C° 0.1 mm 2 mps 656 mmHg 94%
    05:00 +5°C° 0.2 mm 2 mps 655 mmHg 94%
    06:00 +6°C° 0.2 mm 1 mps 655 mmHg 95%
    07:00 +6°C° 0.2 mm 1 mps 654 mmHg 95%
    08:00 +6°C° 3.4 mm 1 mps 654 mmHg 96%
    09:00 +6°C° 3.4 mm 1 mps 654 mmHg 96%
    10:00 +6°C° 3.4 mm 1 mps 654 mmHg 97%
    11:00 +6°C° 1.5 mm 2 mps 654 mmHg 94%
    12:00 +7°C° 1.5 mm 2 mps 655 mmHg 92%
    13:00 +8°C° 1.5 mm 3 mps 655 mmHg 89%
    14:00 +8°C° 0.2 mm 2 mps 656 mmHg 91%
    15:00 +7°C° 0.2 mm 2 mps 656 mmHg 92%
    16:00 +7°C° 0.2 mm 2 mps 656 mmHg 94%
    17:00 +6°C° 0.1 mm 2 mps 657 mmHg 94%
    18:00 +7°C° 0.1 mm 1 mps 657 mmHg 95%
    19:00 +6°C° 0.1 mm 1 mps 658 mmHg 95%
    20:00 +6°C° 0 mm 1 mps 659 mmHg 95%
    21:00 +6°C° 0 mm 1 mps 659 mmHg 95%
    22:00 +5°C° 0 mm 1 mps 660 mmHg 95%
    23:00 +5°C° 0.1 mm 1 mps 660 mmHg 95%

    Tomorrow, 14 November, Thursday

    Time Temperature Precipitation Wind Pressure Humidity
    00:00 +6°C° 0.1 mm 1 mps 661 mmHg 94%
    01:00 +6°C° 0.1 mm 1 mps 661 mmHg 94%
    02:00 +6°C° 0.2 mm 1 mps 661 mmHg 94%
    03:00 +5°C° 0.2 mm 1 mps 661 mmHg 94%
    04:00 +5°C° 0.2 mm 1 mps 662 mmHg 95%
    05:00 +5°C° 0.1 mm 1 mps 662 mmHg 95%
    06:00 +5°C° 0.1 mm 1 mps 662 mmHg 95%
    07:00 +4°C° 0.1 mm 1 mps 662 mmHg 95%
    08:00 +5°C° 0.2 mm 1 mps 663 mmHg 93%
    09:00 +7°C° 0.2 mm 1 mps 663 mmHg 91%
    10:00 +8°C° 0.2 mm 1 mps 664 mmHg 89%
    11:00 +8°C° 0.6 mm 1 mps 664 mmHg 91%
    12:00 +7°C° 0.6 mm 1 mps 664 mmHg 93%
    13:00 +7°C° 0.6 mm 1 mps 664 mmHg 95%
    14:00 +7°C° 0.3 mm 1 mps 663 mmHg 94%
    15:00 +7°C° 0.3 mm 1 mps 663 mmHg 94%
    16:00 +7°C° 0.3 mm 1 mps 663 mmHg 94%
    17:00 +6°C° 0 mm 1 mps 663 mmHg 94%
    18:00 +6°C° 0 mm 1 mps 663 mmHg 94%
    19:00 +5°C° 0 mm 1 mps 663 mmHg 94%
    20:00 +5°C° 0 mm 1 mps 663 mmHg 94%
    21:00 +4°C° 0 mm 2 mps 663 mmHg 93%
    22:00 +4°C° 0 mm 2 mps 663 mmHg 93%
    23:00 +3°C° 0 mm 2 mps 663 mmHg 92%

    Day after tomorrow, 15 November, Friday

    Time Temperature Precipitation Wind Pressure Humidity
    00:00 +3°C° 0 mm 2 mps 663 mmHg 92%
    01:00 +3°C° 0 mm 2 mps 663 mmHg 91%
    02:00 +4°C° 0 mm 2 mps 663 mmHg 91%
    03:00 +4°C° 0 mm 2 mps 663 mmHg 92%
    04:00 +5°C° 0 mm 2 mps 663 mmHg 92%
    05:00 +5°C° 0 mm 2 mps 663 mmHg 93%
    06:00 +5°C° 0 mm 2 mps 663 mmHg 93%
    07:00 +5°C° 0 mm 2 mps 663 mmHg 94%
    08:00 +7°C° 0 mm 3 mps 664 mmHg 91%
    09:00 +8°C° 0 mm 3 mps 664 mmHg 88%
    10:00 +9°C° 0 mm 3 mps 665 mmHg 86%
    11:00 +9°C° 0 mm 3 mps 665 mmHg 85%
    12:00 +8°C° 0 mm 4 mps 665 mmHg 85%
    13:00 +10°C° 0 mm 4 mps 665 mmHg 84%
    14:00 +8°C° 0.1 mm 4 mps 664 mmHg 85%
    15:00 +8°C° 0.1 mm 4 mps 664 mmHg 86%
    16:00 +8°C° 0.1 mm 4 mps 664 mmHg 87%
    17:00 +7°C° 0 mm 4 mps 664 mmHg 88%
    18:00 +7°C° 0 mm 4 mps 664 mmHg 89%
    19:00 +7°C° 0 mm 4 mps 664 mmHg 90%
    20:00 +6°C° 0 mm 4 mps 664 mmHg 90%
    21:00 +6°C° 0 mm 4 mps 664 mmHg 90%
    22:00 +6°C° 0 mm 4 mps 664 mmHg 91%
    23:00 +6°C° 0 mm 4 mps 665 mmHg 91%

    16 November, Saturday

    Time Temperature Precipitation Wind Pressure Humidity
    00:00 +7°C° 0 mm 3 mps 665 mmHg 91%
    01:00 +7°C° 0 mm 3 mps 665 mmHg 91%
    02:00 +7°C° 0 mm 3 mps 666 mmHg 91%
    03:00 +7°C° 0 mm 2 mps 666 mmHg 91%
    04:00 +7°C° 0 mm 2 mps 666 mmHg 91%
    05:00 +7°C° 0 mm 2 mps 666 mmHg 91%
    06:00 +7°C° 0 mm 2 mps 667 mmHg 91%
    07:00 +7°C° 0 mm 2 mps 667 mmHg 91%
    08:00 +8°C° 0.1 mm 2 mps 667 mmHg 91%
    09:00 +8°C° 0.1 mm 2 mps 668 mmHg 91%
    10:00 +8°C° 0.1 mm 2 mps 668 mmHg 91%
    11:00 +9°C° 0.2 mm 2 mps 668 mmHg 88%
    12:00 +9°C° 0.2 mm 2 mps 668 mmHg 85%
    13:00 +10°C° 0.2 mm 2 mps 668 mmHg 82%
    14:00 +9°C° 0.1 mm 2 mps 667 mmHg 85%
    15:00 +10°C° 0.1 mm 1 mps 667 mmHg 89%
    16:00 +9°C° 0.1 mm 1 mps 667 mmHg 92%
    17:00 +8°C° 0 mm 1 mps 666 mmHg 92%
    18:00 +8°C° 0 mm 1 mps 666 mmHg 93%
    19:00 +7°C° 0 mm 1 mps 666 mmHg 94%
    20:00 +7°C° 0 mm 1 mps 666 mmHg 94%
    21:00 +7°C° 0 mm 1 mps 665 mmHg 94%
    22:00 +7°C° 0 mm 1 mps 665 mmHg 93%
    23:00 +7°C° 0 mm 1 mps 665 mmHg 93%

    17 November, Sunday

    Time Temperature Precipitation Wind Pressure Humidity
    00:00 +7°C° 0 mm 1 mps 665 mmHg 92%
    01:00 +6°C° 0 mm 2 mps 664 mmHg 92%
    02:00 +7°C° 0 mm 1 mps 664 mmHg 92%
    03:00 +7°C° 0 mm 1 mps 664 mmHg 92%
    04:00 +6°C° 0 mm 1 mps 663 mmHg 93%
    05:00 +7°C° 0 mm 1 mps 663 mmHg 92%
    06:00 +7°C° 0 mm 1 mps 663 mmHg 91%
    07:00 +7°C° 0 mm 1 mps 663 mmHg 91%
    08:00 +7°C° 0 mm 2 mps 663 mmHg 88%
    09:00 +8°C° 0 mm 2 mps 663 mmHg 85%
    10:00 +8°C° 0 mm 2 mps 663 mmHg 82%
    11:00 +9°C° 0 mm 2 mps 663 mmHg 80%
    12:00 +9°C° 0 mm 3 mps 663 mmHg 79%
    13:00 +10°C° 0 mm 3 mps 662 mmHg 78%
    14:00 +9°C° 2.1 mm 3 mps 662 mmHg 81%
    15:00 +9°C° 2.1 mm 3 mps 661 mmHg 85%
    16:00 +8°C° 2.1 mm 3 mps 661 mmHg 89%
    17:00 +7°C° 1.1 mm 3 mps 661 mmHg 90%
    18:00 +7°C° 1.1 mm 3 mps 662 mmHg 90%
    19:00 +5°C° 1.1 mm 3 mps 662 mmHg 91%
    20:00 +5°C° 0 mm 3 mps 662 mmHg 91%
    21:00 +5°C° 0 mm 3 mps 662 mmHg 91%
    22:00 +5°C° 0 mm 2 mps 663 mmHg 91%
    23:00 +5°C° 0 mm 2 mps 663 mmHg 91%

    18 November, Monday

    Time Temperature Precipitation Wind Pressure Humidity
    00:00 +5°C° 0 mm 2 mps 663 mmHg 91%
    01:00 +4°C° 0 mm 2 mps 663 mmHg 91%
    02:00 +4°C° 0 mm 2 mps 663 mmHg 91%
    03:00 +4°C° 0 mm 2 mps 663 mmHg 91%
    04:00 +4°C° 0 mm 2 mps 664 mmHg 90%
    05:00 +4°C° 0 mm 2 mps 664 mmHg 91%
    06:00 +4°C° 0 mm 2 mps 664 mmHg 92%
    07:00 +3°C° 0 mm 2 mps 664 mmHg 92%
    08:00 +5°C° 0 mm 2 mps 665 mmHg 88%
    09:00 +5°C° 0 mm 3 mps 666 mmHg 84%
    10:00 +7°C° 0 mm 3 mps 666 mmHg 79%
    11:00 +7°C° 0 mm 3 mps 667 mmHg 77%
    12:00 +8°C° 0 mm 3 mps 667 mmHg 74%
    13:00 +8°C° 0 mm 3 mps 667 mmHg 71%
    14:00 +7°C° 0 mm 3 mps 667 mmHg 75%
    15:00 +7°C° 0 mm 2 mps 667 mmHg 80%
    16:00 +7°C° 0 mm 1 mps 666 mmHg 84%
    17:00 +6°C° 0 mm 1 mps 666 mmHg 86%
    18:00 +5°C° 0 mm 1 mps 667 mmHg 89%
    19:00 +5°C° 0 mm 1 mps 667 mmHg 91%
    20:00 +5°C° 0 mm 1 mps 667 mmHg 91%
    21:00 +5°C° 0 mm 1 mps 667 mmHg 92%
    22:00 +5°C° 0 mm 1 mps 667 mmHg 92%
    23:00 +5°C° 0 mm 1 mps 667 mmHg 92%
    Show more